sat.trackr.live / text

‹ back to catalog

ECHOSTAR 11

NORAD 33207 · 2008-035A

PAYLOAD ACTIVE UNKNOWN

§ Identity

Operator
Country
US
Launch date
2008-07-16
Launch site
SEAL
Launch vehicle
Mass (kg)
RCS (m²)
32.41

Purposes: comms

External: N2YO · Heavens-Above · Gunter

§ Orbital elements

Epoch: 2026-09-20T04:15:26.388864Z

Period
1,436.09 min
Inclination
1.2435°
Eccentricity
0.0002428
Mean motion
1.00272445 rev/d
Perigee alt
35,776.2 km
Apogee alt
35,796.6 km
Semi-major
42,164.5 km
B*
0.0000e+0
RAAN
82.9039°
Arg perigee
88.5399°
Mean anomaly
141.7128°
Rev number
5,216

§ Raw data

ECHOSTAR 111 33207U 08035A   26263.17738876 -.00000062  00000+0  00000+0 0  99942 33207   1.2435  82.9039 0002428  88.5399 141.7128  1.00272445 52164

JSON: /api/v1/satellites/33207 · /tle

For live sub-satellite position, see the globe view (requires WebGL).

§ Visibility from observer

Set your observer location to see the next 7 days of passes ≥ 10°. The values pass through the URL so the page stays shareable.

No JS? Fill the form by hand. The geolocation button needs JavaScript.